Theta_e
326 335 337 342 345 348 354 356 356 360 355 351 348 347 344 347 347 355 360 360 359 358 360 359 360 361 357 357 355 353 350 346 343 338 331 330 345 343 341 339 337 334 332
324 328 337 340 345 347 351 353 356 360 357 353 351 349 347 347 349 350 356 360 362 362 361 362 359 359 355 354 351 349 343 342 341 332 327 322 333 334 340 333 334 331 327
323 327 332 339 346 348 349 353 354 358 360 357 356 356 354 355 349 351 359 361 362 363 362 361 359 357 355 351 348 343 338 331 336 334 326 319 316 321 327 331 330 329 324
322 324 328 336 342 349 352 352 354 355 359 362 355 353 348 343 348 353 357 360 362 359 360 358 355 355 351 342 339 337 336 329 328 326 331 329 326 318 317 321 325 323 324
326 332 336 335 341 347 352 355 357 357 358 357 359 354 350 349 354 354 358 355 355 356 354 354 352 347 340 339 335 334 332 334 328 326 323 324 323 326 316 311 314 319 320
322 326 336 341 342 344 350 355 357 359 361 360 357 360 353 351 351 352 354 351 350 349 350 348 345 344 337 334 333 333 331 330 328 328 325 320 317 315 313 310 311 311 313
320 321 324 330 336 338 339 343 351 354 361 361 361 355 362 354 355 352 351 348 344 344 344 342 337 334 334 334 331 333 330 327 326 324 322 322 319 318 316 312 309 307 310
317 319 322 324 329 333 335 335 335 342 357 359 360 359 357 356 356 357 351 347 345 341 340 335 334 332 330 330 330 328 328 328 325 323 322 320 320 318 315 312 309 304 306
313 314 317 317 320 324 329 334 330 329 345 353 355 354 354 358 352 355 350 348 345 336 334 331 329 328 327 327 328 326 324 324 326 323 321 320 319 316 315 315 312 308 302
310 311 313 315 317 322 322 325 331 335 341 349 351 355 352 354 355 350 348 340 337 331 330 329 326 326 326 326 329 326 325 325 321 321 319 319 318 315 315 314 313 311 308
308 309 310 313 314 316 320 323 324 329 336 345 350 352 351 347 344 341 340 335 331 330 329 325 324 324 324 326 329 325 324 322 320 320 318 317 316 315 314 313 314 311 312
309 309 310 312 312 312 314 320 323 323 328 337 342 346 342 342 339 337 336 332 330 329 326 323 323 323 323 325 324 320 319 321 320 318 316 314 314 314 315 312 313 311 313
307 308 309 310 313 314 315 316 320 322 323 329 336 340 339 338 336 335 330 329 328 326 325 323 323 322 322 323 323 321 319 318 316 316 314 314 313 312 312 309 308 307 309
305 306 307 307 308 310 312 313 316 320 322 324 330 335 333 333 332 330 327 327 327 324 323 323 321 321 322 321 319 319 318 317 317 316 314 312 311 311 308 306 306 306 304
298 302 303 303 303 304 307 309 311 314 317 319 321 332 333 332 330 328 326 326 325 324 323 323 322 322 319 315 319 319 317 316 314 314 313 313 311 308 307 306 306 305 302
292 294 296 297 298 300 303 306 308 311 315 314 317 332 330 328 326 325 323 322 323 322 321 320 318 315 305 303 305 310 312 311 312 312 312 313 313 311 308 308 307 306 303
290 290 291 292 294 296 299 301 304 308 310 312 318 329 328 326 323 324 322 322 321 323 320 320 309 303 301 301 301 302 309 309 310 310 311 310 309 311 310 308 307 307 306
290 289 289 290 291 293 294 298 301 308 312 313 319 328 326 323 322 322 322 323 320 317 315 311 306 301 299 299 298 299 305 307 309 310 311 310 309 309 307 306 305 305 305
291 290 290 290 290 290 291 295 299 301 306 307 311 318 323 315 315 310 308 309 309 308 305 307 307 303 299 298 298 299 302 302 306 307 308 307 306 303 302 303 303 303 304
292 291 291 291 290 289 290 293 295 297 297 298 300 302 303 303 302 302 301 303 303 302 301 302 302 302 301 299 298 298 299 298 300 304 300 299 297 296 296 299 301 299 301
293 293 292 291 290 290 289 288 291 294 296 297 298 298 298 297 297 298 298 298 298 298 298 299 300 301 302 301 298 296 299 297 298 299 301 296 295 294 294 294 296 298 297
294 295 292 292 292 293 291 286 287 294 297 296 297 297 298 298 298 298 298 298 298 297 297 298 299 301 301 299 296 295 295 295 296 297 299 300 294 294 294 294 295 295 296
295 296 292 294 296 295 293 287 290 295 294 295 294 296 298 299 300 298 298 299 300 299 300 301 301 301 302 298 295 295 294 296 295 297 297 295 294 294 295 295 295 295 297
296 296 296 294 295 297 295 295 295 296 294 296 296 297 297 297 297 299 299 297 297 297 298 297 296 298 294 295 294 295 295 295 296 295 293 294 294 294 295 294 297 298 298
297 297 296 296 296 298 297 297 297 297 296 295 298 299 299 299 298 299 298 295 295 294 294 294 296 294 295 291 290 290 289 290 290 289 291 293 296 297 297 298 298 298 297
297 297 296 296 297 298 297 298 299 297 294 293 295 294 297 299 299 296 295 293 293 292 291 291 293 294 291 290 290 290 290 289 289 288 290 293 295 295 295 294 293 294 294
Wind_Speed
11 20 19 19 20 19 15 13 12 10 13 11 11 10 10 8 8 5 7 11 9 9 7 5 4 3 3 1 3 3 4 4 2 3 5 6 3 4 1 1 3 7 4
15 10 18 16 21 22 21 18 14 11 12 11 11 9 9 9 8 7 8 8 9 8 9 5 5 5 4 3 3 2 3 3 3 2 3 4 4 5 2 3 3 4 4
12 11 9 21 20 21 21 21 21 18 13 13 9 7 6 5 9 8 7 7 8 7 6 5 5 5 4 4 3 2 1 3 2 4 2 4 3 4 3 4 5 6 3
13 14 10 9 20 22 23 24 24 23 19 15 14 14 12 11 9 8 8 7 5 7 6 7 6 5 4 7 5 3 2 1 3 3 3 3 2 1 4 5 3 5 4
25 24 24 27 15 23 22 22 21 20 19 19 14 13 12 9 6 8 11 10 7 7 8 6 6 4 5 6 7 5 3 1 2 3 3 3 3 3 4 3 6 5 5
23 24 24 25 23 22 12 22 23 22 17 16 17 12 14 11 10 10 9 9 8 6 7 8 7 5 7 6 5 6 5 5 5 4 2 3 3 3 3 3 4 5 6
22 23 25 24 24 24 25 26 14 11 16 16 16 18 9 12 11 12 11 12 9 8 9 8 7 7 7 6 5 6 6 5 5 5 4 3 3 3 2 2 3 3 4
23 24 25 24 26 30 27 17 24 17 19 19 17 13 14 9 9 11 11 10 10 9 10 9 7 8 7 6 6 4 5 5 5 6 4 3 3 3 3 2 2 4 4
20 21 21 22 23 22 28 27 17 19 29 16 8 6 12 13 13 12 10 8 8 10 8 9 9 7 7 7 6 5 6 6 5 5 3 3 4 5 5 3 2 2 3
19 20 18 21 21 16 19 20 19 19 17 18 9 3 10 12 12 9 9 14 10 14 12 10 9 8 7 6 6 6 6 6 3 5 5 0 4 3 4 4 4 3 2
24 20 21 19 21 21 15 17 22 25 26 19 16 9 10 5 5 5 10 9 13 14 12 11 11 9 7 6 6 7 6 6 5 4 4 3 3 3 3 3 3 3 4
32 21 21 23 21 24 22 13 9 14 18 21 15 11 4 3 6 9 9 12 13 13 12 12 11 10 8 6 6 8 7 7 5 5 3 4 3 2 3 4 5 4 5
25 24 22 23 23 26 27 21 15 10 15 18 18 14 5 7 9 9 7 11 12 11 10 11 10 9 10 8 6 6 6 6 6 4 3 2 2 1 4 5 4 5 6
23 23 22 22 24 24 24 24 25 22 17 20 20 14 9 9 8 11 12 10 12 13 12 12 11 11 9 7 6 6 6 5 5 5 3 1 1 6 4 2 3 5 5
28 27 27 25 24 24 24 24 24 23 21 20 22 15 9 10 12 12 10 10 9 9 9 8 10 9 7 4 6 7 6 6 4 2 1 5 5 5 3 1 2 2 3
30 29 28 28 26 25 23 24 24 25 21 20 22 12 12 6 6 10 10 8 9 9 11 10 10 11 9 11 14 8 5 4 1 2 1 1 5 7 9 10 6 4 3
27 28 26 23 23 23 24 25 25 26 24 21 19 12 10 13 12 11 11 10 10 9 10 10 15 14 9 12 11 10 3 3 2 3 2 2 1 3 5 12 10 8 13
21 21 20 20 20 20 21 22 23 24 22 19 20 11 10 16 13 12 12 10 9 10 10 12 15 13 9 12 9 7 3 3 2 4 4 3 3 2 1 3 3 4 6
15 17 18 19 17 19 21 21 18 15 12 11 4 2 12 12 13 18 15 12 14 13 11 9 11 11 8 9 9 6 4 4 5 3 4 4 4 2 4 5 3 5 5
16 17 19 17 18 20 20 18 16 15 16 16 14 9 10 18 19 17 14 12 13 12 8 9 8 9 6 6 6 4 2 4 5 5 9 17 10 12 11 7 6 5 5
15 15 19 16 16 19 18 17 18 18 14 17 18 12 17 18 19 18 14 12 11 9 7 6 3 2 1 5 5 2 3 5 6 6 4 6 10 7 5 4 6 7 5
17 17 14 15 18 15 16 16 17 17 13 21 16 14 21 9 17 15 11 11 8 7 6 3 1 1 1 7 8 7 6 4 4 4 6 4 13 8 8 7 12 11 8
13 12 11 15 14 14 12 15 15 13 12 18 20 10 16 9 15 12 10 7 7 5 4 2 1 4 6 6 9 9 5 2 5 4 7 10 10 12 10 13 11 7 4
12 11 12 11 13 10 14 11 16 13 14 12 13 10 8 13 13 9 9 7 8 5 6 6 6 4 7 6 7 6 6 7 6 10 9 12 15 16 14 9 6 3 3
9 11 10 12 12 12 7 9 5 10 10 14 9 5 5 8 7 5 3 7 4 5 5 6 4 5 5 6 5 5 6 6 7 9 7 6 6 4 3 2 4 3 2
8 9 13 12 13 15 15 11 7 9 5 8 9 11 9 2 5 5 3 10 8 8 7 6 5 4 8 4 7 8 9 9 9 6 6 5 4 6 4 4 5 5 6
Wind_Direction
257 183 185 179 169 172 170 187 193 187 166 180 191 193 203 186 202 199 188 163 175 198 191 212 174 204 217 90 32 357 328 281 72 35 338 296 143 125 63 34 24 49 6
245 243 190 188 176 174 176 175 191 195 185 186 189 202 190 191 190 201 182 178 175 212 179 191 170 179 130 160 96 37 325 300 97 79 285 325 55 18 175 94 99 70 38
266 266 213 190 179 179 181 178 183 190 199 191 182 198 191 197 189 194 165 168 195 163 161 174 168 153 145 135 124 60 97 341 26 127 121 350 27 317 5 27 59 50 2
271 280 267 212 190 185 185 187 184 186 187 192 191 195 200 197 192 184 168 150 160 158 173 175 152 150 152 132 136 89 3 316 351 24 75 146 165 328 324 1 32 10 12
21 7 9 7 203 192 189 193 187 185 189 191 208 191 199 200 178 182 162 162 155 182 182 162 138 142 114 97 112 116 42 31 24 34 15 2 13 35 51 328 345 353 353
22 17 6 6 3 16 249 189 188 184 184 187 204 223 199 202 181 182 158 159 158 176 161 149 146 143 118 119 116 120 90 69 49 19 4 43 56 13 9 9 332 354 317
20 17 12 357 353 5 355 359 210 166 174 197 192 213 229 203 190 186 172 163 159 174 164 147 139 135 125 127 132 103 101 64 82 40 9 17 50 42 354 359 344 328 304
12 12 6 1 5 357 352 35 29 295 211 189 197 184 221 203 216 182 175 165 171 169 150 140 145 132 128 133 116 125 116 122 93 81 49 321 45 36 28 348 360 322 349
4 6 360 351 355 2 349 5 45 306 324 190 174 166 197 224 209 172 176 157 146 140 150 147 134 134 132 134 156 112 105 118 149 128 96 355 29 33 323 358 346 337 322
360 354 354 347 343 4 352 353 351 322 328 340 328 233 209 216 220 170 158 134 139 146 153 144 137 138 141 149 136 132 132 131 125 119 122 67 61 339 357 339 352 315 329
351 348 347 344 341 343 1 355 348 344 338 336 317 298 247 217 159 142 129 159 144 150 156 149 148 151 150 159 139 145 145 132 128 130 132 120 117 56 330 321 349 333 344
342 349 349 347 345 335 332 348 349 339 330 320 311 278 259 163 138 149 181 152 149 149 157 153 160 155 140 132 138 151 149 151 153 112 97 69 44 50 318 10 354 313 325
338 341 350 341 348 346 335 329 329 335 330 321 303 288 201 167 159 154 156 142 146 158 159 154 164 155 145 155 167 126 111 104 96 126 98 87 53 352 51 21 353 345 354
336 331 336 343 340 337 332 328 330 334 331 324 316 288 202 164 149 138 144 157 161 158 155 149 162 146 149 126 119 104 108 112 95 81 63 37 336 72 52 327 344 19 333
334 333 333 333 333 325 322 318 318 315 316 316 312 273 231 175 147 147 150 157 155 160 147 163 131 133 103 113 116 118 108 104 111 113 238 100 125 189 153 268 79 293 329
334 331 331 330 325 320 313 312 309 304 306 305 301 228 158 171 163 141 141 147 153 163 148 142 133 94 85 68 67 55 90 100 185 220 96 342 226 189 179 218 233 259 289
334 332 328 323 320 319 318 309 305 300 294 288 290 242 165 153 145 141 151 150 160 149 131 123 101 96 87 75 69 54 15 31 349 291 291 325 331 34 218 212 223 244 257
336 333 329 324 324 322 320 314 306 291 277 276 273 229 175 151 144 146 155 146 112 98 92 95 106 104 96 88 74 44 291 344 288 267 269 269 274 289 290 5 282 274 288
334 337 332 327 329 330 329 323 327 342 15 355 16 355 134 98 99 88 84 88 93 81 69 67 74 94 97 103 77 42 7 352 323 314 325 312 10 77 16 284 274 278 275
348 345 339 336 342 342 338 338 349 1 30 19 9 65 71 98 93 91 86 78 75 79 74 71 71 72 94 89 67 20 1 331 298 299 89 72 78 55 34 353 328 295 300
341 340 349 343 341 348 348 348 357 18 26 39 37 7 53 75 79 81 80 79 81 83 74 71 56 103 97 150 147 71 354 22 352 335 329 100 65 29 2 314 293 280 329
337 342 343 351 0 351 354 351 360 4 9 56 43 343 61 4 76 75 76 81 80 83 93 116 30 355 181 120 128 96 70 21 317 300 308 349 351 336 297 256 251 252 267
352 346 337 343 347 7 14 10 354 339 15 54 50 350 56 7 68 69 65 71 77 71 73 105 127 189 176 125 154 167 159 256 292 318 329 305 290 281 278 266 264 279 263
333 344 337 346 338 5 10 4 3 10 359 61 61 53 48 51 52 52 51 45 52 10 39 35 42 14 64 61 15 356 347 351 332 9 329 301 278 263 260 290 280 251 252
348 343 358 356 351 4 1 19 47 14 1 26 28 40 65 51 49 60 87 87 52 63 46 28 5 16 23 42 10 340 334 327 321 322 302 291 288 309 321 354 352 5 355
10 359 357 3 358 12 7 2 6 14 16 30 25 27 30 225 180 124 58 36 113 109 110 114 66 72 86 7 316 302 304 298 287 294 290 294 334 305 319 339 330 335 327